FW8305 Weather Reports


time (UTC)temp
C
wind
direction
speed
KPH
gust
KPH
rain 1hr
cm
rain 24hr
cm
rain mn
cm
humidity
%
barometer
mb
20260504110510 17 0 0.0 11.3 0.00 0.00 0.00 59 1006.5
20260504100509 17 0 1.6 17.7 0.00 0.00 0.00 57 1006.9
20260504081530 16 0 0.0 0.0 0.00 0.00 0.00 64 1007.7
20260504081012 16 0 0.0 0.0 0.00 0.00 0.00 63 1007.7
20260504080512 16 0 0.0 0.0 0.00 0.00 0.00 62 1007.9
20260504050510 18 0 0.0 4.8 0.00 0.00 0.00 57 1008.5
20260504045510 18 0 0.0 3.2 0.00 0.00 0.00 57 1008.6
20260504045014 18 0 0.0 4.8 0.00 0.00 0.00 56 1008.6
20260504044528 18 0 0.0 4.8 0.00 0.00 0.00 56 1008.7
20260504044009 18 250 0.0 4.8 0.00 0.00 0.00 57 1008.7
20260504043509 18 0 0.0 1.6 0.00 0.00 0.00 56 1008.7
20260504043042 18 0 0.0 0.0 0.00 0.00 0.00 56 1008.8
20260504042510 18 0 0.0 1.6 0.00 0.00 0.00 56 1008.9
20260504042011 18 0 0.0 1.6 0.00 0.00 0.00 56 1008.9
20260504041534 18 0 0.0 1.6 0.00 0.00 0.00 57 1009.0
20260504041009 18 0 0.0 1.6 0.00 0.00 0.00 57 1009.0
20260504040509 18 0 0.0 0.0 0.00 0.00 0.00 57 1009.1
20260504040028 18 0 0.0 0.0 0.00 0.00 0.00 57 1009.2
20260504035511 18 0 0.0 0.0 0.00 0.00 0.00 56 1009.2
20260504035010 18 0 0.0 0.0 0.00 0.00 0.00 56 1009.3
20260504034530 18 0 0.0 0.0 0.00 0.00 0.00 56 1009.3
20260504034010 18 0 0.0 0.0 0.00 0.00 0.00 56 1009.4
20260504033510 18 0 0.0 0.0 0.00 0.00 0.00 57 1009.4
20260504033029 18 0 0.0 0.0 0.00 0.00 0.00 57 1009.5
20260504032510 19 0 0.0 0.0 0.00 0.00 0.00 57 1009.5
20260504032010 19 0 0.0 0.0 0.00 0.00 0.00 57 1009.5
20260504031530 19 0 0.0 0.0 0.00 0.00 0.00 57 1009.6
20260504031009 19 0 0.0 0.0 0.00 0.00 0.00 57 1009.6
20260504030511 19 0 0.0 1.6 0.00 0.00 0.00 57 1009.7
20260504030036 19 0 0.0 1.6 0.00 0.00 0.00 56 1009.6
20260504025510 19 215 0.0 1.6 0.00 0.00 0.00 56 1009.7
20260504025012 19 0 0.0 0.0 0.00 0.00 0.00 56 1009.7
20260504024529 19 0 0.0 0.0 0.00 0.00 0.00 56 1009.7
20260504024009 20 0 0.0 0.0 0.00 0.00 0.00 56 1009.7
20260504023509 20 0 0.0 0.0 0.00 0.00 0.00 56 1009.7
20260504023030 20 0 0.0 0.0 0.00 0.00 0.00 56 1009.7
20260504022510 20 0 0.0 0.0 0.00 0.00 0.00 56 1009.7
20260504022011 20 0 0.0 0.0 0.00 0.00 0.00 56 1009.7
20260504021532 20 0 0.0 0.0 0.00 0.00 0.00 56 1009.7
20260504021008 20 0 0.0 0.0 0.00 0.00 0.00 55 1009.6
20260504020509 20 0 0.0 0.0 0.00 0.00 0.00 55 1009.7
20260504020036 20 0 0.0 0.0 0.00 0.00 0.00 54 1009.6
20260504015509 20 0 0.0 0.0 0.00 0.00 0.00 54 1009.6
20260504015009 20 0 0.0 0.0 0.00 0.00 0.00 54 1009.5
20260504014529 20 250 0.0 0.0 0.00 0.00 0.00 53 1009.5
20260504014010 20 0 0.0 12.9 0.00 0.00 0.00 53 1009.6
20260504013513 20 0 0.0 12.9 0.00 0.00 0.00 53 1009.5
20260504013035 20 0 0.0 0.0 0.00 0.00 0.00 52 1009.5
20260504012518 21 0 0.0 0.0 0.00 0.00 0.00 52 1009.5
20260504012010 21 0 0.0 1.6 0.00 0.00 0.00 52 1009.5
20260504011530 21 0 0.0 1.6 0.00 0.00 0.00 51 1009.5
20260504011013 21 0 0.0 0.0 0.00 0.00 0.00 51 1009.5
20260504010509 21 0 0.0 0.0 0.00 0.00 0.00 50 1009.5
20260504010030 21 0 0.0 1.6 0.00 0.00 0.00 50 1009.4
20260504005510 21 0 0.0 1.6 0.00 0.00 0.00 49 1009.5
20260504005010 22 218 0.0 1.6 0.00 0.00 0.00 49 1009.5
20260504004541 22 0 0.0 1.6 0.00 0.00 0.00 48 1009.5
20260504004010 22 0 0.0 1.6 0.00 0.00 0.00 47 1009.5
20260504003510 22 0 0.0 1.6 0.00 0.00 0.00 47 1009.5
20260504003030 22 0 0.0 1.6 0.00 0.00 0.00 47 1009.5
20260504002511 23 0 0.0 1.6 0.00 0.00 0.00 46 1009.5
20260504002010 23 0 0.0 1.6 0.00 0.00 0.00 45 1009.6
20260504001534 23 0 0.0 1.6 0.00 0.00 0.00 44 1009.6
20260504001010 24 0 0.0 6.4 0.00 0.00 0.00 44 1009.6
20260504000513 24 266 0.0 27.4 0.00 0.00 0.00 43 1009.7
20260504000028 24 0 1.6 27.4 0.00 0.00 0.00 41 1009.7
20260503235510 24 240 6.4 27.4 0.00 0.00 0.00 40 1009.7
20260503235008 25 0 0.0 9.7 0.00 0.00 0.00 43 1009.8
20260503234529 25 0 0.0 9.7 0.00 0.00 0.00 42 1009.7
20260503234013 25 0 0.0 3.2 0.00 0.00 0.00 42 1009.8
20260503233510 25 0 0.0 11.3 0.00 0.00 0.00 42 1009.8
20260503233029 25 0 0.0 11.3 0.00 0.00 0.00 40 1009.8
20260503232510 25 266 1.6 32.2 0.00 0.00 0.00 41 1009.8
20260503232011 25 259 8.0 32.2 0.00 0.00 0.00 38 1009.9
20260503231530 25 269 9.7 32.2 0.00 0.00 0.00 39 1009.8
20260503231013 25 0 0.0 19.3 0.00 0.00 0.00 41 1009.9
20260503230512 25 280 3.2 19.3 0.00 0.00 0.00 40 1009.8
20260503230034 25 0 0.0 22.5 0.00 0.00 0.00 41 1009.9
20260503225511 25 243 6.4 22.5 0.00 0.00 0.00 40 1009.9
20260503225011 25 240 6.4 17.7 0.00 0.00 0.00 40 1009.9
20260503224530 25 285 6.4 17.7 0.00 0.00 0.00 39 1009.9
20260503224009 25 264 3.2 22.5 0.00 0.00 0.00 40 1009.9
20260503223512 25 306 6.4 22.5 0.00 0.00 0.00 38 1009.9
20260503223031 25 0 1.6 17.7 0.00 0.00 0.00 39 1009.9
20260503222510 26 269 0.0 17.7 0.00 0.00 0.00 42 1009.9
20260503222010 26 251 0.0 12.9 0.00 0.00 0.00 42 1009.9
20260503221532 26 253 1.6 24.1 0.00 0.00 0.00 40 1009.8
20260503221011 26 285 4.8 24.1 0.00 0.00 0.00 40 1009.9
20260503220509 26 277 9.7 20.9 0.00 0.00 0.00 38 1010.0
20260503220035 26 252 0.0 20.9 0.00 0.00 0.00 39 1010.0
20260503215510 26 271 3.2 20.9 0.00 0.00 0.00 39 1010.0
20260503215007 26 269 8.0 22.5 0.00 0.00 0.00 38 1010.1
20260503214542 26 206 4.8 22.5 0.00 0.00 0.00 39 1010.2
20260503214008 26 282 0.0 20.9 0.00 0.00 0.00 39 1010.1
20260503213508 26 273 1.6 25.7 0.00 0.00 0.00 38 1010.2
20260503213034 26 280 14.5 25.7 0.00 0.00 0.00 37 1010.2
20260503212511 26 252 9.7 29.0 0.00 0.00 0.00 37 1010.3
20260503212013 26 0 9.7 29.0 0.00 0.00 0.00 37 1010.3
20260503211528 26 234 12.9 25.7 0.00 0.00 0.00 36 1010.1
20260503211008 26 0 4.8 27.4 0.00 0.00 0.00 40 1010.3
20260503210510 26 240 9.7 27.4 0.00 0.00 0.00 39 1010.3
20260503210026 26 282 12.9 27.4 0.00 0.00 0.00 38 1010.4
20260503205514 26 0 3.2 27.4 0.00 0.00 0.00 39 1010.4
20260503205013 25 259 8.0 27.4 0.00 0.00 0.00 41 1010.5
20260503204532 25 257 12.9 30.6 0.00 0.00 0.00 39 1010.6
20260503204009 25 233 14.5 30.6 0.00 0.00 0.00 42 1010.6
20260503203511 25 250 11.3 30.6 0.00 0.00 0.00 40 1010.7
20260503203028 25 229 12.9 32.2 0.00 0.00 0.00 40 1010.8
20260503202513 25 269 11.3 32.2 0.00 0.00 0.00 40 1010.9
20260503202013 26 262 4.8 20.9 0.00 0.00 0.00 40 1010.9
20260503201532 25 215 3.2 20.9 0.00 0.00 0.00 43 1010.9
20260503201009 25 265 3.2 22.5 0.00 0.00 0.00 42 1011.0
20260503200510 25 210 12.9 22.5 0.00 0.00 0.00 43 1011.1
20260503200028 25 234 1.6 22.5 0.00 0.00 0.00 45 1011.3
20260503195511 25 238 3.2 30.6 0.00 0.00 0.00 43 1011.4
20260503195009 25 241 12.9 30.6 0.00 0.00 0.00 41 1011.4
20260503194534 25 269 11.3 29.0 0.00 0.00 0.00 41 1011.4
20260503194009 25 174 3.2 30.6 0.00 0.00 0.00 43 1011.5
20260503193510 25 0 6.4 30.6 0.00 0.00 0.00 44 1011.5
20260503193030 25 217 9.7 24.1 0.00 0.00 0.00 44 1011.7
20260503192508 25 262 8.0 24.1 0.00 0.00 0.00 43 1011.8
20260503192013 25 290 9.7 24.1 0.00 0.00 0.00 43 1012.0
20260503191528 25 228 4.8 20.9 0.00 0.00 0.00 43 1012.0
20260503191046 25 0 1.6 16.1 0.00 0.00 0.00 46 1012.1
20260503190509 24 0 0.0 27.4 0.00 0.00 0.00 45 1012.2
20260503190038 24 262 11.3 27.4 0.00 0.00 0.00 44 1012.3
20260503185508 23 231 6.4 27.4 0.00 0.00 0.00 45 1012.3
20260503185008 24 243 9.7 20.9 0.00 0.00 0.00 45 1012.5
20260503184530 23 249 4.8 25.7 0.00 0.00 0.00 45 1012.5
20260503184012 23 233 12.9 25.7 0.00 0.00 0.00 44 1012.7
20260503183510 23 227 12.9 25.7 0.00 0.00 0.00 44 1012.6
20260503183037 23 0 1.6 29.0 0.00 0.00 0.00 46 1012.8
20260503182509 23 0 4.8 29.0 0.00 0.00 0.00 44 1012.8
20260503182011 23 229 11.3 29.0 0.00 0.00 0.00 44 1013.0
20260503181549 23 232 3.2 25.7 0.00 0.00 0.00 45 1013.0
20260503181010 23 229 3.2 29.0 0.00 0.00 0.00 44 1013.2
20260503180510 23 245 1.6 29.0 0.00 0.00 0.00 48 1013.5
20260503180041 22 217 4.8 22.5 0.00 0.00 0.00 46 1013.6
20260503175513 22 301 3.2 20.9 0.00 0.00 0.00 46 1013.7
20260503175009 22 253 4.8 20.9 0.00 0.00 0.00 47 1013.8
20260503174527 22 250 1.6 22.5 0.00 0.00 0.00 47 1014.0
20260503174011 22 226 4.8 24.1 0.00 0.00 0.00 46 1014.0
20260503173507 22 242 4.8 24.1 0.00 0.00 0.00 47 1014.1
20260503173030 22 262 1.6 24.1 0.00 0.00 0.00 47 1014.2
20260503172510 22 0 4.8 29.0 0.00 0.00 0.00 49 1014.3
20260503172010 22 243 8.0 29.0 0.00 0.00 0.00 45 1014.3
20260503171528 22 231 9.7 29.0 0.00 0.00 0.00 45 1014.3
20260503171009 21 245 1.6 14.5 0.00 0.00 0.00 48 1014.4
20260503170509 21 246 1.6 14.5 0.00 0.00 0.00 47 1014.5
20260503151009 17 0 0.0 16.1 0.00 0.00 0.00 52 1016.1
20260503150511 16 264 0.0 16.1 0.00 0.00 0.00 51 1016.3
20260503131011 10 0 0.0 6.4 0.00 0.00 0.00 67 1016.9
20260503130511 10 0 0.0 4.8 0.00 0.00 0.00 68 1016.7